Weather History for KCRE - February, 2013

Change the Weather History Date:

Tuesday, February 19, 2013

  Actual Average Record
Temperature  
Mean Temperature 46 °F 49 °F  
Max Temperature 59 °F 58 °F 73 °F (2011)
Min Temperature 32 °F 39 °F 19 °F (2015)
Degree Days  
Heating Degree Days 19 16  
Month to date heating degree days 344 339  
Since 1 July heating degree days 1633 1807  
Cooling Degree Days 0 0  
Month to date cooling degree days 0 0  
Year to date cooling degree days 2 0  
Moisture  
Dew Point 47 °F    
Average Humidity 81    
Maximum Humidity 100    
Minimum Humidity 62    
Precipitation  
Precipitation 0.02 in 0.14 in 1.31 in (2012)
Month to date precipitation 2.62 2.29  
Year to date precipitation 3.26 5.98  
Sea Level Pressure  
Sea Level Pressure 30.07 in    
Wind  
Wind Speed 7 mph (SW)    
Max Wind Speed 21 mph    
Max Gust Speed 30 mph    
Visibility 9 miles    
Events Rain    
T = Trace of Precipitation, MM = Missing Value Source: NWS Daily Summary

Daily Weather History Graph

Daily Weather History Graph

Search for Another Location

Airport or City:

Trip Planner

Search our weather history database for the weather conditions in past years. The results will help you decide how hot, cold, wet, or windy it might be!

Date:

Astronomy

Feb. 19, 2013 Rise Set
Actual Time 6:54 AM EST 6:03 PM EST
Civil Twilight 6:29 AM EST 6:28 PM EST
Nautical Twilight 6:00 AM EST 6:57 PM EST
Astronomical Twilight 5:31 AM EST 7:26 PM EST
Moon 12:41 PM EST (2/19) 2:16 AM EST (2/19)
Length of Visible Light 11h 58m
Length of Day
11h 08m
Waxing Gibbous, 67% of the Moon is Illuminated
Feb 19
Waxing Gibbous
Feb 25
Full
Mar 4
Last Quarter
Mar 11
New
Mar 19
First Quarter

Hourly Weather History & Observations

Time (EST) Temp. Windchill Dew Point Humidity Pressure Visibility Wind Dir Wind Speed Gust Speed Precip Events Conditions
12:53 AM 32.0 °F - 30.9 °F 96% 30.28 in 10.0 mi Calm Calm - N/A   Clear
1:53 AM 34.0 °F - 32.0 °F 92% 30.26 in 10.0 mi Calm Calm - N/A   Clear
2:53 AM 34.0 °F - 32.0 °F 92% 30.24 in 10.0 mi Calm Calm - N/A   Mostly Cloudy
3:53 AM 36.0 °F - 34.0 °F 93% 30.21 in 9.0 mi Calm Calm - N/A   Clear
4:53 AM 36.0 °F - 36.0 °F 100% 30.18 in 10.0 mi Calm Calm - N/A   Scattered Clouds
5:53 AM 39.9 °F 37.8 °F 39.0 °F 97% 30.16 in 10.0 mi ESE 3.5 mph - N/A   Clear
6:53 AM 41.0 °F - 39.9 °F 96% 30.16 in 9.0 mi Calm Calm - N/A   Mostly Cloudy
7:53 AM 46.0 °F - 45.0 °F 96% 30.14 in 10.0 mi Calm Calm - N/A   Scattered Clouds
8:53 AM 57.0 °F - 50.0 °F 77% 30.14 in 10.0 mi SSE 4.6 mph - N/A   Mostly Cloudy
9:53 AM 59.0 °F - 46.9 °F 64% 30.13 in 10.0 mi SSW 5.8 mph - N/A   Partly Cloudy
10:53 AM 57.0 °F - 46.9 °F 69% 30.12 in 10.0 mi South 8.1 mph - 0.00 in   Scattered Clouds
11:53 AM 59.0 °F - 46.9 °F 64% 30.09 in 10.0 mi SSW 8.1 mph - N/A   Overcast
1:53 PM 55.9 °F - 51.1 °F 84% 30.02 in 10.0 mi SW 6.9 mph - 0.00 in Rain Light Rain
2:53 PM 59.0 °F - 50.0 °F 72% 29.99 in 10.0 mi WSW 11.5 mph - 0.00 in Rain Light Rain
3:53 PM 57.0 °F - 53.1 °F 87% 29.97 in 7.0 mi SW 19.6 mph 25.3 mph 0.02 in Rain Light Rain
4:43 PM 55.4 °F - 53.6 °F 94% 29.96 in 3.0 mi SW 18.4 mph 24.2 mph 0.00 in Rain Light Rain
4:53 PM 55.9 °F - 54.0 °F 93% 29.97 in 4.0 mi SW 17.3 mph - 0.00 in Rain Light Rain
5:34 PM 57.2 °F - 55.4 °F 94% 29.96 in 7.0 mi SW 13.8 mph - 0.00 in   Overcast
5:53 PM 57.0 °F - 55.0 °F 93% 29.97 in 10.0 mi WSW 13.8 mph - 0.00 in   Overcast
7:28 PM 57.2 °F - 53.6 °F 88% 29.98 in 10.0 mi WSW 15.0 mph 25.3 mph N/A   Overcast
7:40 PM 57.2 °F - 53.6 °F 88% 29.98 in 10.0 mi West 11.5 mph 21.9 mph N/A   Overcast
7:53 PM 55.9 °F - 53.1 °F 90% 29.98 in 10.0 mi WSW 11.5 mph 18.4 mph N/A   Mostly Cloudy
8:16 PM 55.4 °F - 51.8 °F 88% 29.98 in 10.0 mi WSW 10.4 mph - N/A   Mostly Cloudy
8:27 PM 55.4 °F - 51.8 °F 88% 29.98 in 10.0 mi West 8.1 mph - N/A   Scattered Clouds
8:53 PM 54.0 °F - 51.1 °F 90% 30.00 in 10.0 mi West 10.4 mph 17.3 mph N/A   Partly Cloudy
9:53 PM 52.0 °F - 46.9 °F 83% 30.01 in 10.0 mi WSW 6.9 mph - N/A   Clear
10:53 PM 48.9 °F - 46.0 °F 90% 30.01 in 10.0 mi WSW 5.8 mph - N/A   Clear
11:53 PM 48.9 °F - 46.0 °F 90% 30.01 in 10.0 mi WSW 4.6 mph - N/A   Clear